Home > Weather > Mosbach > Past weeks

Flag for Germany Past Weather in Mosbach, Baden-Württemberg, Germany — Yesterday and Last 2 Weeks

Now
81 °F

Passing clouds.


Feels Like: 81 °F
Forecast: 60 / 88 °F
Wind: 7 mph from Southeast

Location: Mannheim City

Current Time: Aug 24, 2016 at 12:30:48 PM

Latest Report: Aug 24, 2016 at 11:50 AM


Visibility: N/A

Pressure: 30.21 "Hg

Humidity: 48%

Dew Point: 59 °F

Location of MosbachLocation

Past Weather in Mosbach — Graph

°F

Mosbach Temperature Yesterday

Maximum temperature yesterday: 84 °F (at 5:20 PM)
Minimum temperature yesterday: 55 °F (at 5:20 AM)
Average temperature yesterday: 73 °F

High & Low Weather Summary for the Past Weeks

 TemperatureHumidityPressure
High84 °F (Aug 23, 5:20 PM)100% (Aug 11, 5:20 AM)30.39 "Hg (Aug 11, 5:20 AM)
Low45 °F (Aug 11, 6:20 AM)30% (Aug 17, 4:50 PM)29.80 "Hg (Aug 18, 4:20 PM)
Average69 °F65%30.11 "Hg
* Reported Aug 9 11:20 AM — Aug 24 11:20 AM, Mosbach, Weather by CustomWeather, © 2016

Note: Actual official high and low records may vary slightly from our data, if they occured in-between our weather recording intervals... More about our weather records

Advertising

Mosbach Weather History for the Previous 24 Hours

Scroll right to see more
 ConditionsComfort  
Time TempWeatherWind HumidityBarometerVisibility
11:20 AM
Wed, Aug 24
81 °FPassing clouds.7 mph45%30.21 "HgN/A
10:50 AM79 °FPassing clouds.6 mph51%30.21 "HgN/A
10:20 AM77 °FSunny.3 mph57%30.24 "Hg10 mi
9:50 AM75 °FSunny.1 mph61%30.24 "Hg10 mi
9:20 AM72 °FSunny.2 mph65%30.24 "Hg10 mi
8:50 AM68 °FSunny.2 mph73%30.24 "Hg10 mi
8:20 AM66 °FSunny.2 mph83%30.24 "Hg10 mi
7:50 AM64 °FSunny.2 mph83%30.24 "Hg10 mi
7:20 AM63 °FClear.1 mph100%30.24 "Hg10 mi
6:50 AM59 °FClear.2 mph100%30.21 "Hg10 mi
6:20 AM59 °FClear.2 mph100%30.21 "Hg10 mi
5:50 AM59 °FClear.1 mph100%30.21 "Hg10 mi
5:20 AM59 °FClear.1 mph100%30.21 "Hg10 mi
8:50 PM
Tue, Aug 23
75 °FSunny.3 mph57%30.24 "Hg10 mi
8:20 PM79 °FSunny.3 mph51%30.24 "Hg10 mi
7:50 PM81 °FSunny.3 mph48%30.24 "Hg10 mi
7:20 PM82 °FSunny.3 mph42%30.24 "Hg10 mi
6:50 PM82 °FPassing clouds.5 mph42%30.24 "HgN/A
6:20 PM82 °FPassing clouds.5 mph42%30.27 "HgN/A
5:50 PM84 °FSunny.3 mph40%30.27 "Hg10 mi
5:20 PM84 °FSunny.3 mph40%30.27 "Hg10 mi
4:50 PM82 °FSunny.3 mph42%30.27 "Hg10 mi
4:20 PM82 °FSunny.3 mph42%30.27 "Hg10 mi
3:50 PM81 °FSunny.3 mph45%30.27 "Hg10 mi
3:20 PM82 °FSunny.3 mph45%30.30 "Hg10 mi
2:50 PM79 °FSunny.3 mph45%30.30 "Hg10 mi
2:20 PM79 °FSunny.3 mph48%30.30 "Hg10 mi
1:50 PM79 °FSunny.2 mph51%30.33 "Hg10 mi
1:20 PM79 °FSunny.5 mph48%30.33 "Hg10 mi
12:50 PM77 °FSunny.3 mph47%30.33 "Hg10 mi
12:20 PM77 °FSunny.5 mph51%30.36 "Hg10 mi
Weather by CustomWeather, © 2016

See weather overviewHow to use our weather pages